Location: Newark
(44.9333°N, 0.5667°E)
Time: 15:21:18
(UTC+00:00)

Oscar 11 - Pass Details

Date: 29 February 2020
Orbit: 612 x 626 km, 97.6° (Epoch: 31 March)

Event Time Altitude Azimuth Distance (km) Brightness Sun altitude
Rises 19:26:18 0° 219° (SW) 2,900 10.9 -18.8°
Reaches altitude 10° 19:30:06 10° 253° (WSW) 2,000 10.6 -19.4°
Maximum altitude 19:31:30 11° 272° (W) 1,913 10.7 -19.7°
Drops below altitude 10° 19:32:54 10° 291° (WNW) 2,005 10.8 -19.9°
Sets 19:36:44 0° 326° (NW) 2,917 11.2 -20.6°
